User: anonymous   Login
Location: Unspecified
(0.0000°N, 0.0000°E)
Time: 10:21:22
(UTC+00:00)
Language:

LANDSAT 8 - Orbit

View from above orbital plane
View from above orbital plane
View from above satellite
View from above satellite

Ground track
Ground track

The orbit data is extracted from the following two-line orbital elements,

1 39084U 13008A   17348.82798511  .00000046  00000-0  20267-4 0  9991
2 39084  98.2050  56.8008 0001212  92.0479 268.0859 14.57106520257366
Epoch (UTC): 14 December 2017 19:52:17
Eccentricity: 0.0001212
inclination: 98.2050°
perigee height: 701 km
apogee height: 703 km
right ascension of ascending node: 56.8008°
argument of perigee: 92.0479°
revolutions per day: 14.57106520
mean anomaly at epoch: 268.0859°
orbit number at epoch: 25736

The dashed part of the orbit path shows where the satellite is in the earth's shadow,  

DLR